SAS9KH ENGM-EDDH

Flight info

Callsign SAS9KH
Flight time 1h 24m
Altitude 33000
Route VIPPA DCT AAL DCT LUTUS/N0448F340 P615 ALS M852 ALASA/N0450F350 M852 EKERN/N0407F230 T905 BOGMU BOGMU5A
Aircraft A320/M-SDE3FGHIRWY/LB1

Departure

Time 2026-05-05 15:04
Airport Oslo-Gardermoen International Airport (ENGM)

Arrival

Time 2026-05-05 16:29
Airport Hamburg Helmut Schmidt Airport (EDDH)
Time Latitude Longitude Altitude Speed Heading
2026-05-05 14:41 60.19677 11.10248 680 ft 0 kts 285°
2026-05-05 14:47 60.19677 11.10249 679 ft 0 kts 285°
2026-05-05 14:53 60.19671 11.10287 679 ft 4 kts 285°
2026-05-05 14:53 60.19664 11.10339 677 ft 4 kts 285°
2026-05-05 14:53 60.19657 11.10392 680 ft 4 kts 285°
2026-05-05 14:54 60.19656 11.10393 680 ft 0 kts 285°
2026-05-05 14:57 60.19656 11.10390 680 ft 1 kts 279°
2026-05-05 14:57 60.19644 11.10381 676 ft 3 kts 184°
2026-05-05 14:57 60.19600 11.10428 680 ft 9 kts 98°
2026-05-05 14:57 60.19590 11.10539 677 ft 9 kts 118°
2026-05-05 14:58 60.19570 11.10719 680 ft 25 kts 103°
2026-05-05 14:58 60.19507 11.11147 677 ft 17 kts 102°
2026-05-05 14:58 60.19503 11.11180 680 ft 2 kts 104°
2026-05-05 14:58 60.19502 11.11185 680 ft 1 kts 104°
2026-05-05 14:59 60.19485 11.11252 678 ft 8 kts 128°
2026-05-05 14:59 60.19425 11.11280 680 ft 13 kts 194°
2026-05-05 14:59 60.19306 11.11215 678 ft 28 kts 195°
2026-05-05 14:59 60.19092 11.11077 679 ft 38 kts 196°
2026-05-05 15:00 60.18796 11.10919 677 ft 45 kts 198°
2026-05-05 15:00 60.18597 11.10790 677 ft 46 kts 193°
2026-05-05 15:00 60.18249 11.10605 675 ft 26 kts 200°
2026-05-05 15:00 60.18157 11.10553 675 ft 14 kts 197°
2026-05-05 15:01 60.18090 11.10511 674 ft 7 kts 197°
2026-05-05 15:01 60.18033 11.10474 674 ft 10 kts 197°
2026-05-05 15:01 60.17955 11.10431 674 ft 14 kts 195°
2026-05-05 15:01 60.17848 11.10368 674 ft 18 kts 197°
2026-05-05 15:02 60.17735 11.10421 673 ft 19 kts 120°
2026-05-05 15:02 60.17696 11.10676 673 ft 20 kts 107°
2026-05-05 15:02 60.17761 11.10869 672 ft 19 kts 27°
2026-05-05 15:02 60.17832 11.10924 670 ft 0 kts 14°
2026-05-05 15:03 60.17834 11.10925 670 ft 1 kts 14°
2026-05-05 15:03 60.17838 11.10927 672 ft 0 kts 14°
2026-05-05 15:03 60.17839 11.10928 672 ft 1 kts 14°
2026-05-05 15:04 60.17994 11.11018 675 ft 61 kts 15°
2026-05-05 15:04 60.18656 11.11397 676 ft 133 kts 14°
2026-05-05 15:04 60.19653 11.12017 1025 ft 155 kts 16°
2026-05-05 15:04 60.20652 11.12829 1791 ft 163 kts 16°
2026-05-05 15:05 60.22539 11.16207 2985 ft 225 kts 75°
2026-05-05 15:05 60.22689 11.19522 3757 ft 247 kts 86°
2026-05-05 15:05 60.22731 11.23037 4825 ft 255 kts 86°
2026-05-05 15:06 60.22768 11.26624 5965 ft 260 kts 90°
2026-05-05 15:06 60.22345 11.30269 6694 ft 284 kts 119°
2026-05-05 15:06 60.20927 11.33293 6997 ft 314 kts 149°
2026-05-05 15:06 60.18863 11.35128 7438 ft 332 kts 167°
2026-05-05 15:07 60.17371 11.35564 8260 ft 322 kts 186°
2026-05-05 15:07 60.14643 11.34230 10443 ft 292 kts 205°
2026-05-05 15:07 60.12821 11.32512 11716 ft 288 kts 214°
2026-05-05 15:07 60.11010 11.30487 12303 ft 311 kts 213°
2026-05-05 15:08 60.09030 11.28338 12747 ft 335 kts 213°
2026-05-05 15:08 60.07610 11.26814 13113 ft 348 kts 212°
2026-05-05 15:08 60.04736 11.23753 14256 ft 358 kts 213°
2026-05-05 15:08 60.03246 11.22162 14929 ft 359 kts 213°
2026-05-05 15:09 60.01043 11.19802 15999 ft 359 kts 214°
2026-05-05 15:09 59.98839 11.17432 17046 ft 360 kts 215°
2026-05-05 15:09 59.96643 11.15062 18224 ft 358 kts 216°
2026-05-05 15:09 59.94452 11.12695 19217 ft 358 kts 217°
2026-05-05 15:10 59.92294 11.10357 20150 ft 358 kts 218°
2026-05-05 15:10 59.90099 11.07977 21069 ft 359 kts 219°
2026-05-05 15:10 59.87915 11.05611 21925 ft 361 kts 219°
2026-05-05 15:10 59.85708 11.03233 22822 ft 362 kts 220°
2026-05-05 15:11 59.83482 11.00843 23640 ft 364 kts 220°
2026-05-05 15:11 59.81248 10.98443 24286 ft 367 kts 220°
2026-05-05 15:11 59.78995 10.96022 24845 ft 370 kts 220°
2026-05-05 15:11 59.76719 10.93582 25359 ft 374 kts 220°
2026-05-05 15:12 59.74419 10.91124 25834 ft 377 kts 219°
2026-05-05 15:12 59.72099 10.88650 26209 ft 380 kts 219°
2026-05-05 15:12 59.69752 10.86154 26593 ft 385 kts 218°
2026-05-05 15:12 59.67380 10.83640 26968 ft 388 kts 218°
2026-05-05 15:13 59.64989 10.81115 27341 ft 391 kts 218°
2026-05-05 15:13 59.62580 10.78572 27697 ft 394 kts 218°
2026-05-05 15:13 59.60160 10.76019 28146 ft 393 kts 218°
2026-05-05 15:13 59.57753 10.73487 28628 ft 392 kts 217°
2026-05-05 15:14 59.55328 10.71016 29088 ft 395 kts 213°
2026-05-05 15:14 59.52691 10.69224 29555 ft 408 kts 204°
2026-05-05 15:14 59.49880 10.68167 30024 ft 412 kts 201°
2026-05-05 15:14 59.47066 10.67177 30417 ft 411 kts 200°
2026-05-05 15:15 59.44251 10.66177 30712 ft 410 kts 200°
2026-05-05 15:15 59.41446 10.65170 31120 ft 409 kts 200°
2026-05-05 15:15 59.38683 10.64172 31512 ft 409 kts 200°
2026-05-05 15:15 59.35883 10.63165 31900 ft 408 kts 200°
2026-05-05 15:16 59.33089 10.62167 32282 ft 408 kts 200°
2026-05-05 15:16 59.30298 10.61172 32739 ft 408 kts 200°
2026-05-05 15:16 59.27496 10.60180 32962 ft 412 kts 199°
2026-05-05 15:17 59.21759 10.58142 32992 ft 426 kts 199°
2026-05-05 15:17 59.15837 10.56056 32949 ft 437 kts 199°
2026-05-05 15:18 59.09818 10.53879 32962 ft 440 kts 203°
2026-05-05 15:18 59.04419 10.48989 32935 ft 423 kts 223°
2026-05-05 15:19 59.00512 10.40846 32928 ft 399 kts 240°
2026-05-05 15:19 58.97414 10.31917 32932 ft 403 kts 238°
2026-05-05 15:19 58.95507 10.27850 32939 ft 415 kts 226°
2026-05-05 15:20 58.93087 10.24659 32942 ft 429 kts 214°
2026-05-05 15:20 58.90235 10.22620 32886 ft 447 kts 200°
2026-05-05 15:20 58.87144 10.21874 32951 ft 459 kts 193°
2026-05-05 15:21 58.80856 10.21077 32949 ft 445 kts 192°
2026-05-05 15:21 58.74622 10.20283 32948 ft 453 kts 193°
2026-05-05 15:22 58.68293 10.19427 32944 ft 459 kts 193°
2026-05-05 15:22 58.62006 10.18605 32883 ft 439 kts 193°
2026-05-05 15:23 58.55982 10.17839 32951 ft 432 kts 193°
2026-05-05 15:23 58.50000 10.17041 32951 ft 430 kts 193°
2026-05-05 15:24 58.44024 10.16246 32949 ft 431 kts 193°
2026-05-05 15:24 58.38044 10.15467 32952 ft 431 kts 193°
2026-05-05 15:25 58.32057 10.14708 32957 ft 431 kts 193°
2026-05-05 15:25 58.26074 10.13939 32961 ft 431 kts 193°
2026-05-05 15:26 58.20085 10.13174 32960 ft 431 kts 193°
2026-05-05 15:26 58.14139 10.12412 32965 ft 431 kts 193°
2026-05-05 15:27 58.08154 10.11647 32972 ft 431 kts 193°
2026-05-05 15:27 58.02165 10.10894 32933 ft 431 kts 192°
2026-05-05 15:28 57.96170 10.10137 32949 ft 432 kts 193°
2026-05-05 15:28 57.90175 10.09371 32961 ft 432 kts 192°
2026-05-05 15:29 57.84168 10.08623 32971 ft 432 kts 192°
2026-05-05 15:29 57.78168 10.07881 32942 ft 431 kts 192°
2026-05-05 15:30 57.72168 10.07126 32970 ft 432 kts 192°
2026-05-05 15:30 57.66167 10.06377 32978 ft 432 kts 192°
2026-05-05 15:31 57.60215 10.05646 32980 ft 431 kts 192°
2026-05-05 15:31 57.54223 10.04904 32978 ft 431 kts 192°
2026-05-05 15:32 57.48236 10.04157 32944 ft 431 kts 192°
2026-05-05 15:32 57.42246 10.03421 32952 ft 431 kts 192°
2026-05-05 15:33 57.36246 10.02685 32963 ft 432 kts 192°
2026-05-05 15:33 57.30249 10.01949 32969 ft 432 kts 192°
2026-05-05 15:34 57.24247 10.01238 32926 ft 432 kts 191°
2026-05-05 15:34 57.18240 10.00513 32958 ft 433 kts 191°
2026-05-05 15:35 57.12231 9.99781 32967 ft 433 kts 191°
2026-05-05 15:35 57.06195 9.99292 32971 ft 436 kts 188°
2026-05-05 15:36 57.00111 9.99368 32977 ft 438 kts 186°
2026-05-05 15:36 56.94020 9.99537 32929 ft 437 kts 186°
2026-05-05 15:37 56.87941 9.99577 32947 ft 437 kts 187°
2026-05-05 15:37 56.81861 9.99546 32945 ft 436 kts 187°
2026-05-05 15:38 56.75828 9.99519 32962 ft 436 kts 187°
2026-05-05 15:38 56.69761 9.99503 32925 ft 436 kts 186°
2026-05-05 15:39 56.63688 9.99496 32937 ft 436 kts 186°
2026-05-05 15:39 56.57618 9.99496 32947 ft 436 kts 186°
2026-05-05 15:40 56.51545 9.99485 32950 ft 436 kts 186°
2026-05-05 15:40 56.45475 9.99477 32950 ft 436 kts 186°
2026-05-05 15:41 56.39409 9.99473 32929 ft 436 kts 186°
2026-05-05 15:41 56.33335 9.99470 32939 ft 436 kts 186°
2026-05-05 15:42 56.27250 9.99467 32951 ft 436 kts 186°
2026-05-05 15:42 56.21220 9.99463 32951 ft 436 kts 186°
2026-05-05 15:43 56.15146 9.99447 32920 ft 436 kts 186°
2026-05-05 15:43 56.09064 9.99439 32934 ft 437 kts 186°
2026-05-05 15:44 56.02990 9.99449 32941 ft 437 kts 186°
2026-05-05 15:44 55.96910 9.99454 32950 ft 437 kts 186°
2026-05-05 15:45 55.90833 9.99453 32958 ft 437 kts 186°
2026-05-05 15:45 55.84750 9.99434 32933 ft 437 kts 185°
2026-05-05 15:46 55.78699 9.99420 32937 ft 437 kts 185°
2026-05-05 15:46 55.72615 9.99417 32945 ft 438 kts 185°
2026-05-05 15:47 55.66518 9.99424 32957 ft 438 kts 185°
2026-05-05 15:47 55.60424 9.99422 32959 ft 438 kts 185°
2026-05-05 15:48 55.54326 9.99411 32955 ft 438 kts 185°
2026-05-05 15:48 55.48231 9.99397 32958 ft 438 kts 185°
2026-05-05 15:49 55.42133 9.99390 32959 ft 438 kts 185°
2026-05-05 15:49 55.36037 9.99385 32928 ft 438 kts 184°
2026-05-05 15:50 55.29936 9.99376 32945 ft 438 kts 184°
2026-05-05 15:50 55.23837 9.99368 32947 ft 438 kts 184°
2026-05-05 15:51 55.17738 9.99366 32961 ft 438 kts 184°
2026-05-05 15:51 55.11684 9.99361 32958 ft 438 kts 184°
2026-05-05 15:52 55.05585 9.99355 32949 ft 438 kts 184°
2026-05-05 15:52 54.99482 9.99344 31952 ft 445 kts 184°
2026-05-05 15:52 54.96347 9.99331 30603 ft 455 kts 184°
2026-05-05 15:53 54.93159 9.99321 29278 ft 460 kts 184°
2026-05-05 15:53 54.89963 9.99070 27879 ft 459 kts 191°
2026-05-05 15:53 54.86818 9.98126 26468 ft 460 kts 194°
2026-05-05 15:53 54.83658 9.97092 24990 ft 463 kts 195°
2026-05-05 15:54 54.80500 9.96060 24026 ft 458 kts 195°
2026-05-05 15:54 54.77395 9.95050 23217 ft 450 kts 195°
2026-05-05 15:54 54.74340 9.94057 22346 ft 443 kts 195°
2026-05-05 15:54 54.71362 9.93092 22031 ft 426 kts 195°
2026-05-05 15:55 54.68506 9.92169 21905 ft 411 kts 196°
2026-05-05 15:55 54.65744 9.91279 21936 ft 398 kts 196°
2026-05-05 15:55 54.63043 9.90409 21441 ft 395 kts 196°
2026-05-05 15:55 54.60305 9.89516 20193 ft 406 kts 195°
2026-05-05 15:56 54.57491 9.88596 18937 ft 417 kts 195°
2026-05-05 15:56 54.55622 9.87989 18215 ft 422 kts 195°
2026-05-05 15:56 54.52675 9.87522 17215 ft 428 kts 184°
2026-05-05 15:56 54.49706 9.88035 16403 ft 429 kts 173°
2026-05-05 15:57 54.46841 9.89502 15650 ft 430 kts 161°
2026-05-05 15:57 54.44140 9.91652 15119 ft 423 kts 158°
2026-05-05 15:57 54.41536 9.93782 14934 ft 407 kts 158°
2026-05-05 15:57 54.39067 9.95799 14936 ft 389 kts 158°
2026-05-05 15:58 54.36644 9.97776 14947 ft 382 kts 159°
2026-05-05 15:58 54.34253 9.99727 14947 ft 377 kts 159°
2026-05-05 15:58 54.31902 10.01643 14874 ft 373 kts 158°
2026-05-05 15:58 54.29530 10.03560 13860 ft 383 kts 158°
2026-05-05 15:59 54.27070 10.05523 12708 ft 395 kts 158°
2026-05-05 15:59 54.24594 10.07506 12201 ft 387 kts 158°
2026-05-05 15:59 54.22209 10.09432 12009 ft 371 kts 158°
2026-05-05 15:59 54.19900 10.11303 11920 ft 364 kts 158°
2026-05-05 16:00 54.17631 10.13146 11933 ft 359 kts 158°
2026-05-05 16:00 54.15390 10.14960 11935 ft 355 kts 158°
2026-05-05 16:00 54.13171 10.16744 11914 ft 351 kts 158°
2026-05-05 16:00 54.10964 10.18510 11804 ft 351 kts 158°
2026-05-05 16:01 54.08741 10.20288 11551 ft 355 kts 158°
2026-05-05 16:01 54.06491 10.22084 11305 ft 358 kts 158°
2026-05-05 16:01 54.04231 10.23884 11049 ft 359 kts 158°
2026-05-05 16:01 54.01973 10.25675 10800 ft 358 kts 158°
2026-05-05 16:02 53.99723 10.27456 10553 ft 357 kts 158°
2026-05-05 16:02 53.97418 10.28962 10309 ft 353 kts 167°
2026-05-05 16:02 53.95035 10.29844 10065 ft 347 kts 172°
2026-05-05 16:02 53.92703 10.30607 9840 ft 336 kts 172°
2026-05-05 16:03 53.90457 10.31347 9713 ft 322 kts 172°
2026-05-05 16:03 53.88296 10.32063 9575 ft 310 kts 172°
2026-05-05 16:03 53.86217 10.32755 9443 ft 300 kts 172°
2026-05-05 16:03 53.84205 10.33428 9307 ft 290 kts 171°
2026-05-05 16:04 53.82231 10.34086 9175 ft 287 kts 172°
2026-05-05 16:04 53.80279 10.34731 9043 ft 286 kts 172°
2026-05-05 16:04 53.78330 10.35370 8899 ft 285 kts 171°
2026-05-05 16:04 53.76385 10.36006 8771 ft 283 kts 171°
2026-05-05 16:05 53.74489 10.36628 8634 ft 273 kts 171°
2026-05-05 16:05 53.72641 10.36876 8497 ft 261 kts 188°
2026-05-05 16:05 53.70905 10.35974 8008 ft 262 kts 213°
2026-05-05 16:05 53.69552 10.34042 7880 ft 251 kts 231°
2026-05-05 16:06 53.68464 10.31807 7752 ft 243 kts 232°
2026-05-05 16:06 53.67400 10.29638 7629 ft 239 kts 232°
2026-05-05 16:06 53.66344 10.27491 7503 ft 237 kts 232°
2026-05-05 16:06 53.65294 10.25355 7379 ft 236 kts 231°
2026-05-05 16:07 53.64242 10.23218 7257 ft 237 kts 231°
2026-05-05 16:07 53.63197 10.21093 7132 ft 237 kts 231°
2026-05-05 16:07 53.62143 10.18943 7013 ft 237 kts 232°
2026-05-05 16:07 53.61093 10.16803 6889 ft 238 kts 232°
2026-05-05 16:08 53.60050 10.14683 6770 ft 236 kts 232°
2026-05-05 16:08 53.59000 10.12555 6649 ft 236 kts 232°
2026-05-05 16:08 53.57982 10.10494 6530 ft 234 kts 232°
2026-05-05 16:08 53.56939 10.08381 6408 ft 235 kts 231°
2026-05-05 16:09 53.55890 10.06262 6277 ft 236 kts 231°
2026-05-05 16:09 53.54836 10.04127 6148 ft 240 kts 231°
2026-05-05 16:09 53.53644 10.01701 6039 ft 297 kts 231°
2026-05-05 16:09 53.52278 9.98936 5901 ft 308 kts 230°
2026-05-05 16:10 53.50912 9.96201 6024 ft 301 kts 231°
2026-05-05 16:10 53.49591 9.93555 5923 ft 288 kts 230°
2026-05-05 16:10 53.48353 9.91063 5918 ft 273 kts 231°
2026-05-05 16:10 53.47169 9.88670 5918 ft 259 kts 231°
2026-05-05 16:11 53.46047 9.86407 5866 ft 248 kts 231°
2026-05-05 16:11 53.42843 9.79972 5472 ft 237 kts 231°
2026-05-05 16:12 53.41785 9.77851 5346 ft 237 kts 231°
2026-05-05 16:12 53.39667 9.73621 5097 ft 237 kts 230°
2026-05-05 16:13 53.36504 9.67306 4999 ft 234 kts 231°
2026-05-05 16:13 53.35486 9.65282 5007 ft 225 kts 230°
2026-05-05 16:13 53.34478 9.63295 4978 ft 223 kts 230°
2026-05-05 16:14 53.32499 9.59388 4985 ft 217 kts 230°
2026-05-05 16:14 53.30606 9.55627 4964 ft 197 kts 232°
2026-05-05 16:15 53.30016 9.51357 4714 ft 194 kts 284°
2026-05-05 16:15 53.31559 9.47830 4182 ft 191 kts 322°
2026-05-05 16:16 53.33680 9.45175 3279 ft 189 kts 341°
2026-05-05 16:16 53.36123 9.45427 2989 ft 174 kts 30°
2026-05-05 16:17 53.38282 9.46538 2989 ft 169 kts 340°
2026-05-05 16:17 53.39109 9.45188 2988 ft 172 kts 295°
2026-05-05 16:18 53.38345 9.41377 2991 ft 193 kts 210°
2026-05-05 16:18 53.37017 9.40790 3011 ft 206 kts 180°
2026-05-05 16:18 53.35068 9.42886 2973 ft 153 kts 103°
2026-05-05 16:19 53.35051 9.44483 2951 ft 128 kts 70°
2026-05-05 16:19 53.35479 9.45811 2747 ft 151 kts 47°
2026-05-05 16:19 53.36853 9.48812 2964 ft 162 kts 60°
2026-05-05 16:20 53.37910 9.52018 2963 ft 154 kts 58°
2026-05-05 16:20 53.39273 9.55087 1899 ft 166 kts 50°
2026-05-05 16:21 53.40709 9.57173 1977 ft 123 kts 38°
2026-05-05 16:22 53.43001 9.60080 2131 ft 149 kts 37°
2026-05-05 16:22 53.44744 9.62414 2031 ft 167 kts 44°
2026-05-05 16:23 53.46330 9.65307 2009 ft 168 kts 49°
2026-05-05 16:23 53.47088 9.66794 2008 ft 169 kts 49°
2026-05-05 16:23 53.48548 9.69680 2010 ft 166 kts 49°
2026-05-05 16:24 53.49300 9.71165 2008 ft 168 kts 49°
2026-05-05 16:24 53.50061 9.72658 2009 ft 169 kts 49°
2026-05-05 16:24 53.51575 9.75650 2008 ft 168 kts 49°
2026-05-05 16:25 53.52316 9.77105 1998 ft 152 kts 49°
2026-05-05 16:25 53.53801 9.80017 2008 ft 168 kts 49°
2026-05-05 16:25 53.54566 9.81516 2010 ft 168 kts 49°
2026-05-05 16:26 53.56055 9.84423 1993 ft 146 kts 49°
2026-05-05 16:26 53.57364 9.86976 1844 ft 152 kts 49°
2026-05-05 16:27 53.58031 9.88310 1948 ft 150 kts 51°
2026-05-05 16:27 53.58609 9.89769 1502 ft 156 kts 56°
2026-05-05 16:27 53.59206 9.91205 1266 ft 142 kts 50°
2026-05-05 16:27 53.59901 9.92497 861 ft 155 kts 48°
2026-05-05 16:28 53.60557 9.93836 560 ft 143 kts 52°
2026-05-05 16:28 53.61188 9.95092 339 ft 142 kts 52°
2026-05-05 16:28 53.61778 9.96284 141 ft 123 kts 52°
2026-05-05 16:28 53.62265 9.97270 43 ft 99 kts 51°
2026-05-05 16:29 53.62683 9.98110 44 ft 69 kts 50°
2026-05-05 16:29 53.62878 9.98509 44 ft 40 kts 50°
2026-05-05 16:29 53.63047 9.98845 44 ft 30 kts 51°
2026-05-05 16:29 53.63089 9.99145 44 ft 19 kts 97°
2026-05-05 16:30 53.63098 9.99283 44 ft 7 kts 42°
2026-05-05 16:30 53.63095 9.99349 45 ft 7 kts 89°
2026-05-05 16:30 53.63108 9.99419 45 ft 0 kts 57°
2026-05-05 16:31 53.63114 9.99432 45 ft 8 kts 57°
2026-05-05 16:31 53.63188 9.99600 44 ft 19 kts 50°
2026-05-05 16:31 53.63214 9.99761 45 ft 15 kts 128°
2026-05-05 16:31 53.63182 9.99800 45 ft 1 kts 147°
2026-05-05 16:32 53.63193 9.99813 43 ft 4 kts
2026-05-05 16:32 53.63233 9.99776 43 ft 3 kts 333°
2026-05-05 16:32 53.63234 9.99776 43 ft 0 kts 333°
2026-05-05 16:33 53.63242 9.99771 45 ft 5 kts 340°
2026-05-05 16:34 53.63306 9.99814 45 ft 15 kts 43°
2026-05-05 16:34 53.63375 9.99955 45 ft 17 kts 52°
2026-05-05 16:34 53.63425 10.00109 46 ft 15 kts 91°
2026-05-05 16:34 53.63410 10.00199 44 ft 8 kts 95°
2026-05-05 16:35 53.63412 10.00273 46 ft 2 kts 87°
2026-05-05 16:35 53.63413 10.00289 46 ft 0 kts 87°
2026-05-05 16:35 53.63413 10.00295 46 ft 0 kts 87°